Weather in Rameno

Russia / Samara Oblast     53°14′01″N   48°21′31″E
temp.,
°C
wind,
m/s
gust,
m/s
humid.,
%
clouds,
%
prec.,
mm/h
press.,
hPa
HPBL,
m
27 february, sat
sat2701:00−4sse2698100 1.9 999200
04:00+1w5129299 1.9 999558
07:00+1wsw4109890 0.1 998480
10:00+1wsw5119895 0.3 998535
13:00+1wsw59100100 0.3 997476
16:00+1wsw59100100 0.3 998438
19:000wsw4898100 0.5 999355
22:00−10nnw81490100 1.4 1001432
28 february, sun
sun2801:00−13nnw7149098 0.2 1003478
04:00−15nnw8149099 0.3 1005454
07:00−17nw6149194 0.0 1007362
10:00−16nnw6129187 0.0 1008364
13:00−13nnw7118965 0.0 1010448
16:00−12nnw6108764 0.0 1011525
19:00−15nw4119037 0.0 1013278
22:00−18nw389434 0.0 1016170
1 march, mon
mon101:00−19nw349662 0.0 101762
04:00−20nw349635 0.0 101956
07:00−21nw34963 0.0 102162
10:00−17nnw37913 0.0 1023277
13:00−13nnw35875 0.0 1023381
16:00−12nnw358717 0.0 1023420
19:00−16nnw129312 0.0 102320
22:00−16sw119835 0.0 102320
2 march, tue
tue201:00−17wsw239683 0.0 102124
04:00−15sw369578 0.0 1018120
07:00−12sw51195100 0.0 1014292
10:00−6sw71395100 0.8 1011559
13:00−2sw81294100 0.8 1007746
16:00−1sw71197100 1.9 1004656
19:000wnw51197100 0.8 1002511
22:00−4wnw499388 0.9 1003156
3 march, wed
wed301:00−5wnw5119354 0.0 1003249
04:00−7wnw4119329 0.0 1003233
07:00−5wnw5129447 0.0 1004393
10:00−3nw8138774 0.1 1005741
13:00−3nw8128799 0.0 1006780
16:00−3nw8118399 0.1 1007915
19:00−6nw6148794 0.0 1008493
22:00−7nw5149053 0.0 1011450